[[{"header":{"parameterUnit":"m.s-1","parameterCategory":2,"la1":30.2992,"la2":30.254,"lo1":-89.0895,"lo2":-89.0443,"dy":0.0025,"dx":0.0025,"nx":19,"ny":19,"refTime":"2026-05-02T09:00:00:Z","depth":"0","parameterNumber":2,"parameterNumberName":"U-component_of_CURRENTS"},"data":[0,0,0,-0.111,-0.111,-0.1094,-0.1094,-0.1087,-0.1087,0,0,0,0,0,0,0,0,0,0,0,-0.1112,-0.1112,-0.111,-0.111,-0.1094,-0.1094,-0.1087,-0.1087,0,0,0,0,0,0,0,0,0,0,0,-0.1112,-0.1112,-0.1112,-0.111,-0.1094,-0.1094,-0.1087,-0.1095,0,0,0,0,0,0,0,0,0,0,-0.1109,-0.1108,-0.1112,-0.1112,-0.111,-0.1094,-0.1094,-0.1095,-0.1095,-0.1099,0,-0.1095,0,-0.1094,-0.1087,-0.1087,0,0,0,-0.1107,-0.1109,-0.1107,-0.1112,-0.111,-0.1094,-0.11,-0.1095,-0.1094,-0.1099,-0.1095,-0.1094,-0.1094,-0.1087,-0.1087,-0.1087,-0.1087,0,0,-0.1108,-0.1108,-0.1107,-0.1106,-0.1103,-0.1101,-0.11,-0.1094,-0.1092,-0.1095,-0.1094,-0.1094,-0.1087,-0.1087,-0.1087,-0.1087,0,0,0,-0.1113,-0.1108,-0.1106,-0.1106,-0.1104,-0.11,-0.1099,-0.1092,-0.1091,-0.1094,-0.1094,-0.1087,-0.1087,-0.1087,-0.1087,-0.108,0,0,0,-0.1113,-0.1111,-0.1106,-0.1105,-0.1104,-0.1096,-0.1097,-0.1091,-0.1091,-0.1094,-0.1087,-0.1087,-0.1087,-0.1087,-0.108,-0.1069,0,0,0,-0.1113,-0.1111,-0.1109,-0.1106,-0.11,-0.1096,-0.1095,-0.1091,-0.1091,-0.1087,-0.1087,-0.1087,-0.1087,-0.108,-0.1069,-0.1036,0,0,0,-0.1114,-0.1111,-0.1109,-0.1106,-0.11,-0.1098,-0.1095,-0.1091,-0.1088,-0.1087,-0.1087,-0.1087,-0.108,-0.107,-0.1037,-0.091,-0.0896,0,0,-0.1113,-0.1111,-0.111,-0.1108,-0.1104,-0.11,-0.1095,-0.1089,-0.1089,-0.1089,-0.1089,-0.108,-0.1069,-0.1036,-0.0908,-0.0893,0,0,0,-0.1112,-0.1107,-0.1107,-0.1102,-0.1103,-0.1093,-0.1091,-0.1088,-0.1081,-0.1087,-0.1081,-0.1074,-0.1053,-0.0979,-0.0968,-0.0833,-0.1086,-0.1086,-0.1086,-0.1105,-0.1105,-0.1099,-0.1095,-0.1094,-0.109,-0.108,-0.1075,-0.1082,-0.1077,-0.107,-0.1041,-0.0963,-0.0953,-0.0816,-0.1075,-0.1075,-0.1075,-0.1075,-0.1092,-0.1078,-0.1084,-0.1077,-0.1075,-0.107,-0.1065,-0.1064,-0.1045,-0.1062,-0.1042,-0.0977,-0.0939,-0.0798,-0.1075,-0.1075,-0.1075,-0.1075,-0.1075,-0.1072,-0.1063,-0.1065,-0.1053,-0.1047,-0.1049,-0.1021,-0.1032,-0.1028,-0.1016,-0.0917,-0.0915,-0.0788,-0.1001,-0.1001,-0.1001,-0.1,-0.1,-0.1,-0.104,-0.1043,-0.1026,-0.1023,-0.1012,-0.1002,-0.0992,-0.0967,-0.091,-0.0888,-0.0887,-0.0747,-0.1017,-0.1016,-0.0997,-0.0998,-0.0998,-0.0998,-0.0999,-0.0981,-0.0995,-0.0967,-0.0955,-0.0932,-0.0872,-0.0895,-0.0785,-0.0765,-0.0703,-0.0557,-0.081,-0.0793,-0.0801,-0.0794,-0.0718,-0.0718,-0.0718,-0.0718,-0.0938,-0.0944,-0.0893,-0.086,-0.0831,-0.0802,-0.0643,-0.0553,-0.0426,-0.0333,-0.0367,-0.0342,-0.0359,-0.0317,-0.0335,-0.032,-0.0125,-0.0125,-0.0124,-0.0883,-0.0883,-0.0821,-0.0802,-0.0767,-0.0693,-0.0495,-0.0281,-0.0109,-0.0092,-0.0203,-0.0228,-0.0189,-0.0227,-0.0165,-0.0201,-0.0179,0,0]},{"header":{"parameterUnit":"m.s-1","parameterCategory":2,"la1":30.2992,"la2":30.254,"lo1":-89.0895,"lo2":-89.0443,"dy":0.0025,"dx":0.0025,"nx":19,"ny":19,"refTime":"2026-05-02T09:00:00:Z","depth":"0","parameterNumber":3,"parameterNumberName":"V-component_of_CURRENTS"},"data":[0,0,0,-0.0619,-0.0618,-0.0598,-0.0598,-0.0575,-0.0575,0,0,0,0,0,0,0,0,0,0,0,-0.0625,-0.0625,-0.0619,-0.0618,-0.0598,-0.0598,-0.0575,-0.0575,0,0,0,0,0,0,0,0,0,0,0,-0.0625,-0.0625,-0.0625,-0.0618,-0.0598,-0.0598,-0.0575,-0.0589,0,0,0,0,0,0,0,0,0,0,-0.0608,-0.0616,-0.0625,-0.0625,-0.0618,-0.0598,-0.0598,-0.059,-0.0588,-0.0587,0,-0.0586,0,-0.0582,-0.0574,-0.0574,0,0,0,-0.0615,-0.0618,-0.0611,-0.0625,-0.0618,-0.0598,-0.0606,-0.0589,-0.0587,-0.0586,-0.0585,-0.0584,-0.0582,-0.0574,-0.0574,-0.0571,-0.0571,0,0,-0.0616,-0.0621,-0.0613,-0.0611,-0.0615,-0.0607,-0.0605,-0.0588,-0.0588,-0.0585,-0.0584,-0.0581,-0.0574,-0.0574,-0.0571,-0.0571,0,0,0,-0.0622,-0.0622,-0.0616,-0.0611,-0.0609,-0.0606,-0.0605,-0.0588,-0.0586,-0.0584,-0.0581,-0.0574,-0.0574,-0.0571,-0.0571,-0.0585,0,0,0,-0.0622,-0.0626,-0.0617,-0.062,-0.0609,-0.0598,-0.0606,-0.0587,-0.0585,-0.0581,-0.0574,-0.0574,-0.0571,-0.0571,-0.0584,-0.059,0,0,0,-0.0626,-0.0626,-0.0624,-0.062,-0.0613,-0.0598,-0.0595,-0.0587,-0.0584,-0.0574,-0.0574,-0.0571,-0.0571,-0.0584,-0.0589,-0.0574,0,0,0,-0.0631,-0.0636,-0.0624,-0.063,-0.0613,-0.061,-0.0595,-0.0591,-0.0585,-0.0574,-0.0571,-0.0571,-0.0584,-0.0589,-0.0574,-0.055,-0.0549,0,0,-0.0642,-0.0637,-0.0641,-0.0631,-0.0635,-0.0613,-0.0613,-0.0598,-0.0586,-0.0576,-0.0576,-0.0584,-0.0589,-0.0574,-0.0561,-0.056,0,0,0,-0.0648,-0.065,-0.065,-0.0649,-0.0641,-0.0631,-0.0614,-0.0603,-0.0591,-0.0584,-0.0584,-0.0587,-0.0577,-0.0562,-0.0561,-0.0596,-0.0572,-0.0572,-0.0572,-0.0667,-0.0664,-0.0672,-0.0666,-0.0661,-0.0643,-0.0632,-0.0613,-0.0603,-0.0599,-0.0598,-0.0597,-0.0583,-0.0581,-0.0618,-0.0598,-0.0598,-0.0598,-0.0598,-0.0689,-0.0697,-0.0688,-0.0695,-0.0682,-0.0677,-0.0648,-0.0635,-0.0611,-0.0608,-0.0598,-0.0578,-0.0581,-0.0621,-0.0599,-0.0599,-0.0599,-0.0599,-0.0599,-0.0708,-0.0712,-0.0714,-0.0721,-0.0715,-0.0696,-0.0674,-0.0653,-0.0626,-0.0618,-0.0584,-0.0583,-0.0616,-0.0607,-0.0607,-0.0607,-0.0607,-0.0607,-0.0607,-0.0728,-0.0731,-0.0743,-0.0743,-0.0742,-0.0726,-0.0687,-0.066,-0.0616,-0.0595,-0.0594,-0.0621,-0.06,-0.0597,-0.0606,-0.0606,-0.0607,-0.0607,-0.0607,-0.0751,-0.0753,-0.0771,-0.0775,-0.0761,-0.0716,-0.0688,-0.0612,-0.059,-0.0559,-0.0603,-0.0574,-0.0562,-0.0563,-0.0559,-0.0558,-0.0558,-0.0558,-0.0558,-0.0766,-0.0768,-0.0784,-0.0784,-0.0766,-0.071,-0.0604,-0.0538,-0.0546,-0.0572,-0.0605,-0.061,-0.0611,-0.0603,-0.0603,-0.06,-0.061,-0.061,-0.061,-0.0777,-0.0783,-0.0788,-0.0786,-0.0761,-0.068,-0.0539,-0.0416,-0.0504,-0.0617,-0.0661,-0.0659,-0.0674,-0.0671,-0.0663,-0.066,-0.0657,0,0]}],[{"header":{"parameterUnit":"m.s-1","parameterCategory":2,"la1":30.2992,"la2":30.254,"lo1":-89.0895,"lo2":-89.0443,"dy":0.0025,"dx":0.0025,"nx":19,"ny":19,"refTime":"2026-05-02T09:00:00:Z","depth":"2","parameterNumber":2,"parameterNumberName":"U-component_of_CURRENTS"},"data":[0,0,0,-0.1091,-0.1091,-0.1078,-0.1078,-0.1073,-0.1073,0,0,0,0,0,0,0,0,0,0,0,-0.1092,-0.1092,-0.1091,-0.1091,-0.1078,-0.1078,-0.1073,-0.1073,0,0,0,0,0,0,0,0,0,0,0,-0.1092,-0.1092,-0.1092,-0.1091,-0.1078,-0.1078,-0.1073,-0.1079,0,0,0,0,0,0,0,0,0,0,-0.1091,-0.109,-0.1092,-0.1092,-0.1091,-0.1078,-0.1078,-0.108,-0.1079,-0.1083,0,-0.1079,0,-0.1079,-0.1073,-0.1073,0,0,0,-0.1089,-0.109,-0.1089,-0.1092,-0.1091,-0.1078,-0.1083,-0.1079,-0.1079,-0.1083,-0.1079,-0.1079,-0.1079,-0.1073,-0.1073,-0.1073,-0.1073,0,0,-0.1089,-0.1089,-0.1089,-0.1088,-0.1085,-0.1084,-0.1083,-0.1079,-0.1076,-0.1079,-0.1079,-0.1079,-0.1073,-0.1073,-0.1073,-0.1073,0,0,0,-0.1093,-0.1089,-0.1087,-0.1088,-0.1087,-0.1083,-0.1082,-0.1076,-0.1076,-0.1079,-0.1079,-0.1073,-0.1073,-0.1073,-0.1073,-0.1067,0,0,0,-0.1093,-0.1092,-0.1088,-0.1087,-0.1086,-0.108,-0.108,-0.1076,-0.1076,-0.1079,-0.1073,-0.1073,-0.1073,-0.1073,-0.1067,-0.1055,0,0,0,-0.1093,-0.1092,-0.109,-0.1087,-0.1083,-0.108,-0.1079,-0.1076,-0.1076,-0.1073,-0.1073,-0.1073,-0.1073,-0.1067,-0.1056,-0.1022,0,0,0,-0.1094,-0.1092,-0.109,-0.1088,-0.1083,-0.1081,-0.1079,-0.1076,-0.1074,-0.1073,-0.1073,-0.1073,-0.1067,-0.1056,-0.1023,-0.0891,-0.0876,0,0,-0.1094,-0.1092,-0.1092,-0.1089,-0.1087,-0.1083,-0.1079,-0.1075,-0.1075,-0.1075,-0.1075,-0.1067,-0.1056,-0.1022,-0.0888,-0.0873,0,0,0,-0.1093,-0.1089,-0.1089,-0.1085,-0.1086,-0.1077,-0.1076,-0.1073,-0.1068,-0.1073,-0.1068,-0.1061,-0.1039,-0.0962,-0.095,-0.1073,-0.1073,-0.1073,-0.1073,-0.1087,-0.1087,-0.1081,-0.1078,-0.1078,-0.1074,-0.1065,-0.106,-0.1068,-0.1063,-0.1056,-0.1027,-0.0945,-0.0935,-0.1062,-0.1062,-0.1062,-0.1062,-0.1062,-0.1075,-0.1061,-0.1067,-0.1061,-0.1059,-0.1055,-0.1051,-0.105,-0.1031,-0.1049,-0.1028,-0.096,-0.0921,-0.1062,-0.1062,-0.1062,-0.1062,-0.1062,-0.1062,-0.1055,-0.1046,-0.1049,-0.1038,-0.1032,-0.1035,-0.1006,-0.1018,-0.1014,-0.1002,-0.0899,-0.0897,-0.1007,-0.0987,-0.0987,-0.0987,-0.0986,-0.0986,-0.0986,-0.1024,-0.1027,-0.101,-0.1008,-0.0998,-0.0988,-0.0978,-0.0952,-0.0893,-0.087,-0.0868,-0.1001,-0.1003,-0.1002,-0.0983,-0.0984,-0.0984,-0.0984,-0.0985,-0.0966,-0.098,-0.0952,-0.0941,-0.0918,-0.0851,-0.0878,-0.0765,-0.0745,-0.0681,-0.0783,-0.0789,-0.0771,-0.0779,-0.0772,-0.0694,-0.0694,-0.0694,-0.0694,-0.0924,-0.093,-0.0879,-0.0846,-0.0816,-0.0778,-0.0599,-0.0481,-0.0474,-0.0464,-0.0474,-0.0463,-0.048,-0.0446,-0.0462,-0.0449,-0.0287,-0.0287,-0.0286,-0.087,-0.0869,-0.0808,-0.0788,-0.0752,-0.0661,-0.0424,-0.0158,-0.012,-0.0273,-0.0433,-0.0661,-0.0674,-0.0689,-0.0662,-0.0678,-0.0668,0,0]},{"header":{"parameterUnit":"m.s-1","parameterCategory":2,"la1":30.2992,"la2":30.254,"lo1":-89.0895,"lo2":-89.0443,"dy":0.0025,"dx":0.0025,"nx":19,"ny":19,"refTime":"2026-05-02T09:00:00:Z","depth":"2","parameterNumber":3,"parameterNumberName":"V-component_of_CURRENTS"},"data":[0,0,0,-0.0516,-0.0516,-0.0497,-0.0497,-0.0472,-0.0472,0,0,0,0,0,0,0,0,0,0,0,-0.0522,-0.0522,-0.0516,-0.0516,-0.0497,-0.0497,-0.0472,-0.0472,0,0,0,0,0,0,0,0,0,0,0,-0.0522,-0.0522,-0.0522,-0.0516,-0.0497,-0.0497,-0.0472,-0.0485,0,0,0,0,0,0,0,0,0,0,-0.0503,-0.0513,-0.0522,-0.0522,-0.0515,-0.0497,-0.0497,-0.0486,-0.0485,-0.0482,0,-0.0481,0,-0.0478,-0.0471,-0.0471,0,0,0,-0.0511,-0.0514,-0.0508,-0.0522,-0.0515,-0.0497,-0.0504,-0.0485,-0.0484,-0.048,-0.0481,-0.048,-0.0478,-0.047,-0.047,-0.0465,-0.0465,0,0,-0.0512,-0.0519,-0.0509,-0.0507,-0.0514,-0.0505,-0.0503,-0.0484,-0.0485,-0.0481,-0.0479,-0.0477,-0.047,-0.047,-0.0465,-0.0465,0,0,0,-0.0518,-0.0519,-0.0513,-0.0508,-0.0506,-0.0504,-0.0503,-0.0485,-0.0483,-0.0479,-0.0477,-0.047,-0.047,-0.0465,-0.0465,-0.0482,0,0,0,-0.0519,-0.0523,-0.0514,-0.0518,-0.0506,-0.0496,-0.0505,-0.0484,-0.0482,-0.0477,-0.047,-0.047,-0.0465,-0.0465,-0.0481,-0.0488,0,0,0,-0.0522,-0.0524,-0.0522,-0.0518,-0.0512,-0.0496,-0.0493,-0.0484,-0.0481,-0.0471,-0.047,-0.0465,-0.0465,-0.0481,-0.0487,-0.0473,0,0,0,-0.0528,-0.0533,-0.0522,-0.0528,-0.0512,-0.0508,-0.0493,-0.0489,-0.0482,-0.047,-0.0465,-0.0465,-0.048,-0.0486,-0.0473,-0.0441,-0.044,0,0,-0.0539,-0.0535,-0.0538,-0.0528,-0.0531,-0.051,-0.0509,-0.0494,-0.0483,-0.047,-0.047,-0.0481,-0.0486,-0.0473,-0.0453,-0.0451,0,0,0,-0.0544,-0.0547,-0.0546,-0.0545,-0.0536,-0.0526,-0.051,-0.0499,-0.0488,-0.048,-0.0481,-0.0483,-0.0474,-0.0455,-0.0453,-0.0466,-0.0466,-0.0466,-0.0466,-0.0565,-0.0561,-0.0568,-0.0561,-0.0556,-0.0538,-0.0527,-0.051,-0.0499,-0.0497,-0.0497,-0.0498,-0.0478,-0.0477,-0.0496,-0.0497,-0.0497,-0.0497,-0.0497,-0.0587,-0.0594,-0.0584,-0.0591,-0.0577,-0.0573,-0.0544,-0.0533,-0.0511,-0.0508,-0.0498,-0.0473,-0.0476,-0.0498,-0.0498,-0.0498,-0.0497,-0.0497,-0.0497,-0.0607,-0.0611,-0.0613,-0.0619,-0.0614,-0.0595,-0.0574,-0.0555,-0.0528,-0.0521,-0.0482,-0.0482,-0.05,-0.0512,-0.0512,-0.0512,-0.0512,-0.0512,-0.0512,-0.063,-0.0632,-0.0645,-0.0645,-0.0644,-0.0629,-0.0591,-0.0564,-0.0519,-0.0495,-0.0494,-0.0503,-0.0502,-0.05,-0.0512,-0.0512,-0.0512,-0.0512,-0.0512,-0.0654,-0.0657,-0.0675,-0.068,-0.0666,-0.0607,-0.0591,-0.0514,-0.0494,-0.0462,-0.0471,-0.0472,-0.0458,-0.0459,-0.0455,-0.0454,-0.0454,-0.0454,-0.0454,-0.0671,-0.0673,-0.0691,-0.0691,-0.0672,-0.0597,-0.0456,-0.0337,-0.0329,-0.0321,-0.0327,-0.0315,-0.032,-0.0298,-0.0303,-0.0295,-0.0253,-0.0252,-0.0252,-0.0683,-0.069,-0.0696,-0.0695,-0.0668,-0.0554,-0.0334,-0.0073,-0.0082,-0.0241,-0.026,-0.0447,-0.0445,-0.0448,-0.0427,-0.0428,-0.0422,0,0]}],[{"header":{"parameterUnit":"m.s-1","parameterCategory":2,"la1":30.2992,"la2":30.254,"lo1":-89.0895,"lo2":-89.0443,"dy":0.0025,"dx":0.0025,"nx":19,"ny":19,"refTime":"2026-05-02T09:00:00:Z","depth":"4","parameterNumber":2,"parameterNumberName":"U-component_of_CURRENTS"},"data":[0,0,0,-0.0753,-0.0754,-0.0796,-0.0796,-0.0829,-0.0829,0,0,0,0,0,0,0,0,0,0,0,-0.0742,-0.0742,-0.0753,-0.0754,-0.0796,-0.0796,-0.0829,-0.0829,0,0,0,0,0,0,0,0,0,0,0,-0.0742,-0.0742,-0.0743,-0.0754,-0.0796,-0.0797,-0.0829,-0.0803,0,0,0,0,0,0,0,0,0,0,-0.0764,-0.076,-0.0742,-0.0743,-0.0755,-0.0796,-0.0797,-0.0802,-0.0804,-0.0804,0,-0.0815,0,-0.0821,-0.0831,-0.0831,0,0,0,-0.0755,-0.0758,-0.0766,-0.0743,-0.0755,-0.0796,-0.0777,-0.0803,-0.0806,-0.0807,-0.0815,-0.0816,-0.0821,-0.0831,-0.0831,-0.0858,-0.0858,0,0,-0.0752,-0.0752,-0.0764,-0.0768,-0.0771,-0.0776,-0.0779,-0.0805,-0.0812,-0.0815,-0.0817,-0.0822,-0.0831,-0.0832,-0.0858,-0.0858,0,0,0,-0.0745,-0.075,-0.0758,-0.0766,-0.0775,-0.0777,-0.078,-0.0811,-0.0813,-0.0818,-0.0822,-0.0832,-0.0832,-0.0858,-0.0858,-0.0857,0,0,0,-0.0744,-0.0746,-0.0757,-0.0757,-0.0774,-0.0797,-0.0786,-0.0811,-0.0814,-0.0822,-0.0832,-0.0832,-0.0858,-0.0858,-0.0857,-0.0844,0,0,0,-0.0739,-0.0746,-0.0751,-0.0757,-0.0774,-0.0797,-0.0801,-0.0812,-0.0817,-0.0831,-0.0832,-0.0858,-0.0858,-0.0856,-0.0844,-0.0809,0,0,0,-0.0735,-0.0746,-0.0751,-0.0767,-0.0774,-0.0796,-0.08,-0.0823,-0.0837,-0.0832,-0.0858,-0.0858,-0.0856,-0.0844,-0.0809,-0.0684,0,0,0,-0.0744,-0.0748,-0.0755,-0.0761,-0.0778,-0.079,-0.081,-0.0831,-0.0839,-0.0847,-0.0848,-0.0857,-0.0844,-0.0809,-0.0701,0,0,0,0,-0.0754,-0.0758,-0.0766,-0.0779,-0.0795,-0.0807,-0.0829,-0.0836,-0.0852,-0.0848,-0.0862,-0.0854,-0.0832,-0.0762,-0.0859,-0.0859,-0.0859,-0.0859,-0.0859,-0.0757,-0.0764,-0.0775,-0.0786,-0.0801,-0.0822,-0.0829,-0.0841,-0.0856,-0.0864,-0.0858,-0.0836,-0.0764,-0.087,-0.087,-0.087,-0.087,-0.087,-0.087,-0.0755,-0.0751,-0.0771,-0.0785,-0.08,-0.0818,-0.0831,-0.0841,-0.0836,-0.0859,-0.0838,-0.0772,-0.087,-0.087,-0.087,-0.087,-0.087,-0.087,-0.087,-0.0738,-0.0734,-0.0755,-0.0771,-0.0789,-0.0811,-0.0791,-0.0818,-0.0825,-0.0815,-0.0721,-0.0821,-0.0813,-0.0803,-0.0803,-0.0802,-0.0802,-0.0802,-0.0802,-0.0702,-0.0721,-0.0726,-0.0751,-0.0758,-0.0765,-0.077,-0.0744,-0.0758,-0.0693,-0.0807,-0.0813,-0.0815,-0.0809,-0.0799,-0.0799,-0.08,-0.08,-0.08,-0.0654,-0.0676,-0.0671,-0.068,-0.0686,-0.0677,-0.0706,-0.0619,-0.0576,-0.0525,-0.0616,-0.0626,-0.0605,-0.0612,-0.0598,-0.0525,-0.0523,-0.0522,0,-0.0618,-0.0629,-0.0611,-0.0598,-0.0573,-0.0608,-0.0505,-0.0483,-0.048,-0.0466,-0.0591,-0.0699,-0.0704,-0.0687,-0.069,-0.0677,0,0,0,-0.058,-0.0579,-0.0545,-0.054,-0.0506,-0.0456,-0.0468,-0.0413,-0.0504,-0.0401,-0.0479,-0.049,-0.0679,-0.079,-0.078,-0.0783,-0.0772,0,0]},{"header":{"parameterUnit":"m.s-1","parameterCategory":2,"la1":30.2992,"la2":30.254,"lo1":-89.0895,"lo2":-89.0443,"dy":0.0025,"dx":0.0025,"nx":19,"ny":19,"refTime":"2026-05-02T09:00:00:Z","depth":"4","parameterNumber":3,"parameterNumberName":"V-component_of_CURRENTS"},"data":[0,0,0,-0.0109,-0.0109,-0.0103,-0.0103,-0.0085,-0.0085,0,0,0,0,0,0,0,0,0,0,0,-0.0113,-0.0113,-0.0109,-0.0109,-0.0103,-0.0103,-0.0085,-0.0085,0,0,0,0,0,0,0,0,0,0,0,-0.0113,-0.0113,-0.0113,-0.0109,-0.0103,-0.0103,-0.0086,-0.0091,0,0,0,0,0,0,0,0,0,0,-0.0098,-0.0108,-0.0113,-0.0113,-0.0109,-0.0103,-0.0103,-0.0092,-0.0091,-0.0087,0,-0.009,0,-0.0088,-0.0084,-0.0084,0,0,0,-0.0105,-0.0109,-0.0104,-0.0113,-0.0109,-0.0103,-0.0104,-0.0091,-0.0091,-0.0086,-0.009,-0.0089,-0.0088,-0.0084,-0.0084,-0.0096,-0.0096,0,0,-0.0105,-0.0113,-0.0105,-0.0104,-0.0113,-0.0105,-0.0104,-0.0091,-0.0094,-0.009,-0.0089,-0.0088,-0.0084,-0.0084,-0.0096,-0.0096,0,0,0,-0.0109,-0.0113,-0.0109,-0.0104,-0.0105,-0.0105,-0.0104,-0.0095,-0.0093,-0.0089,-0.0087,-0.0084,-0.0084,-0.0095,-0.0096,-0.0123,0,0,0,-0.0109,-0.0116,-0.0109,-0.0114,-0.0105,-0.0102,-0.0109,-0.0094,-0.0092,-0.0087,-0.0084,-0.0084,-0.0095,-0.0096,-0.0121,-0.0129,0,0,0,-0.0112,-0.0116,-0.0116,-0.0114,-0.0113,-0.0102,-0.0099,-0.0093,-0.0091,-0.0084,-0.0084,-0.0095,-0.0095,-0.012,-0.0128,-0.0124,0,0,0,-0.0118,-0.0124,-0.0117,-0.0125,-0.0113,-0.0114,-0.0099,-0.0102,-0.0099,-0.0084,-0.0095,-0.0096,-0.012,-0.0126,-0.0123,-0.0076,0,0,0,-0.0128,-0.0126,-0.013,-0.0123,-0.013,-0.0115,-0.0124,-0.0115,-0.0106,-0.0097,-0.0098,-0.0122,-0.0127,-0.0124,-0.011,0,0,0,0,-0.0135,-0.0139,-0.0139,-0.0142,-0.0139,-0.014,-0.013,-0.0128,-0.013,-0.0107,-0.0126,-0.0129,-0.0125,-0.0096,-0.0098,-0.0098,-0.0098,-0.0098,-0.0098,-0.0155,-0.0152,-0.0163,-0.016,-0.0162,-0.0159,-0.016,-0.0156,-0.0145,-0.0156,-0.0154,-0.0174,-0.0145,-0.0159,-0.0159,-0.016,-0.016,-0.016,-0.016,-0.0172,-0.0178,-0.0179,-0.019,-0.019,-0.0199,-0.0192,-0.019,-0.0189,-0.0182,-0.0178,-0.0131,-0.0163,-0.0162,-0.0162,-0.0161,-0.0161,-0.0161,-0.0161,-0.0184,-0.0187,-0.0198,-0.0215,-0.0228,-0.0227,-0.0225,-0.0224,-0.0214,-0.0215,-0.0168,-0.0187,-0.0179,-0.0211,-0.0211,-0.0211,-0.0211,-0.0211,-0.0211,-0.0192,-0.0201,-0.0222,-0.0239,-0.0252,-0.0257,-0.0249,-0.0235,-0.0224,-0.0191,-0.022,-0.0191,-0.0189,-0.0182,-0.0211,-0.0211,-0.0211,-0.0211,-0.0211,-0.0201,-0.0213,-0.0238,-0.0256,-0.0271,-0.0263,-0.0262,-0.0209,-0.0192,-0.0164,-0.017,-0.0172,-0.0152,-0.0151,-0.0141,-0.016,-0.0159,-0.0159,0,-0.0208,-0.0214,-0.0245,-0.0263,-0.0263,-0.0259,-0.0211,-0.0186,-0.0164,-0.016,-0.02,-0.021,-0.021,-0.0191,-0.0189,-0.0179,0,0,0,-0.0213,-0.0223,-0.0239,-0.0256,-0.0253,-0.0206,-0.0192,-0.0167,-0.0173,-0.0127,-0.0146,-0.0149,-0.0187,-0.0213,-0.0187,-0.0185,-0.0171,0,0]}]]